EHI
7 10 12 11 9 10 10 7 4 3 2 2 1 1 1 1 0 1 1 3 5 4 2 1 0 0 0 0 0 0 0 1 2 1 0 0 0 0 0 0 0 0 0
11 13 13 11 9 10 10 7 4 3 2 1 0 0 1 1 1 2 1 2 4 4 2 0 0 0 0 0 0 0 0 1 2 1 0 0 0 0 0 0 0 0 0
13 14 13 11 10 10 9 7 6 5 3 2 1 1 1 3 3 3 2 2 2 2 1 0 0 0 0 0 0 0 0 1 2 1 0 0 0 0 0 0 0 0 0
13 12 12 12 12 12 10 8 7 8 7 6 5 4 4 5 5 4 3 3 2 1 1 1 1 1 1 1 1 1 1 1 1 1 0 0 0 0 0 0 0 0 0
13 11 11 13 14 13 12 10 8 9 9 8 6 5 5 6 5 3 3 3 3 2 1 2 2 2 3 3 4 4 4 3 2 2 1 1 0 0 0 0 0 0 0
13 13 12 12 13 14 13 11 8 7 8 7 6 5 4 4 3 1 1 1 2 1 0 1 1 2 3 4 5 5 5 4 4 3 3 2 1 0 0 0 0 0 0
15 13 12 13 14 14 12 11 9 7 6 6 5 3 2 3 2 1 0 0 0 0 0 0 0 2 3 4 4 4 4 4 4 3 4 4 2 0 0 0 0 0 0
13 11 10 13 15 13 10 10 10 7 5 5 5 3 1 1 2 1 0 0 0 1 0 0 1 2 3 3 3 3 3 3 2 1 2 2 2 0 0 0 0 0 0
9 8 9 13 15 11 8 9 9 6 4 4 5 3 1 1 2 2 1 0 1 2 1 0 1 2 3 3 3 3 2 1 1 0 0 1 1 0 0 0 0 0 0
8 8 10 13 13 10 7 7 6 5 4 4 5 4 3 3 3 3 2 1 1 1 0 0 1 2 2 3 4 3 1 0 0 0 0 0 0 0 0 0 0 0 0
9 9 11 12 11 9 7 6 6 5 3 4 5 5 4 3 4 3 2 2 1 0 0 0 0 1 1 2 4 4 1 0 0 0 0 0 0 0 0 0 0 0 0
10 10 10 10 9 7 6 5 6 4 3 4 5 5 4 4 5 4 3 3 2 0 0 0 0 0 0 1 3 3 1 0 0 0 0 0 0 0 0 0 0 0 0
11 10 10 9 6 5 5 5 4 2 2 4 5 5 5 5 5 5 4 3 2 0 0 0 0 0 0 2 3 2 0 0 0 0 0 0 0 0 0 0 0 0 0
8 8 8 6 5 4 4 4 3 1 1 2 3 4 4 5 5 5 4 3 2 1 0 0 0 0 1 2 3 2 1 0 0 0 0 0 0 0 0 0 0 0 0
4 4 4 4 3 4 4 4 3 2 2 2 3 3 3 4 4 4 4 3 2 1 0 0 0 0 2 3 3 2 2 1 0 0 0 0 0 0 0 0 0 0 0
1 1 1 2 3 3 3 3 2 2 2 2 2 2 2 2 3 4 3 3 2 1 0 0 0 1 3 3 2 2 2 1 0 0 0 0 0 0 0 0 0 0 0
3 2 1 1 2 2 1 1 1 1 2 1 1 1 1 1 3 4 4 2 1 0 0 0 1 2 3 2 1 1 1 0 0 0 0 0 0 0 0 0 0 0 0
4 4 3 3 3 3 2 1 1 1 1 1 1 1 1 1 3 4 4 2 0 0 0 0 1 2 2 1 0 0 0 0 0 0 0 0 0 0 0 0 0 0 0
4 4 4 3 3 4 4 3 2 1 0 1 2 2 2 2 1 2 2 2 1 0 0 0 0 1 1 0 0 0 0 0 0 0 0 0 0 0 0 0 0 0 0
5 5 5 4 4 5 5 4 4 3 2 2 3 3 3 2 1 0 1 2 2 1 1 1 0 0 1 1 0 0 0 0 0 0 0 0 0 0 0 0 0 0 0
6 6 6 5 5 5 5 5 4 4 4 4 3 2 2 1 0 0 1 2 2 1 2 2 1 1 2 2 1 0 0 0 0 0 0 0 0 0 0 0 0 0 0
6 5 5 5 5 4 4 4 3 4 5 4 2 2 1 0 1 1 0 1 1 1 2 2 2 3 4 3 2 1 0 0 0 0 0 0 0 0 0 0 0 0 0
7 6 5 4 4 4 2 2 2 3 5 3 2 3 2 1 2 2 1 1 1 1 1 2 3 3 3 2 2 1 0 0 0 0 0 0 0 1 1 0 0 0 0
9 8 6 4 4 4 2 0 1 3 4 4 3 4 3 3 3 2 2 2 2 1 0 1 2 2 2 2 1 0 0 0 0 0 1 1 0 1 1 1 0 0 0
9 9 8 6 5 5 2 0 0 2 4 4 4 4 3 3 3 2 2 3 3 2 1 0 1 1 1 1 0 0 1 1 0 1 2 2 1 0 1 1 0 0 0
8 8 7 7 7 5 2 0 1 2 4 5 5 4 3 3 2 1 2 3 3 3 2 1 0 0 0 0 0 1 2 2 1 1 2 2 1 0 1 0 0 0 0
Wind_Speed
4 4 3 3 3 3 4 3 3 4 4 4 3 3 2 2 1 2 4 7 5 4 3 3 2 3 3 4 4 4 5 5 6 6 5 5 5 6 6 6 6 7 7
3 4 4 3 3 3 3 3 4 3 3 2 3 2 2 2 2 1 2 6 6 4 3 2 2 2 3 3 4 3 4 4 5 5 5 5 5 5 6 6 6 6 6
4 4 4 4 3 4 4 3 4 3 3 3 3 3 2 2 2 1 1 2 5 7 5 3 2 2 3 3 3 3 4 4 5 5 5 5 5 5 6 6 6 6 6
5 4 4 4 4 4 4 3 3 3 3 3 2 2 2 2 2 2 1 2 2 3 6 5 3 2 3 3 3 3 3 4 5 5 5 5 5 5 5 6 5 6 6
6 5 4 3 4 4 4 4 3 3 3 2 2 2 2 2 2 2 1 1 1 1 2 6 5 3 2 3 3 3 3 3 3 4 5 5 6 6 5 6 6 6 6
6 5 4 4 5 4 4 3 3 2 2 2 2 2 2 2 2 2 2 2 2 2 2 2 4 5 5 3 3 3 3 3 4 4 4 5 6 6 5 5 5 6 6
6 5 4 5 5 4 4 5 4 4 3 2 2 2 3 3 2 2 2 1 2 2 2 2 1 1 3 7 5 3 3 3 4 4 5 5 5 6 6 6 6 5 6
6 6 5 5 5 4 5 5 4 3 3 3 2 2 3 4 4 3 3 3 2 2 2 2 2 1 2 2 4 4 3 3 4 4 4 4 5 5 6 7 6 6 6
5 5 6 5 5 5 5 6 5 5 3 3 2 2 2 2 2 4 3 2 2 1 2 1 2 2 2 1 2 4 3 3 3 3 3 3 4 5 6 6 7 7 7
5 5 5 5 5 4 5 6 6 4 4 4 3 2 2 2 2 2 3 3 3 3 2 2 1 2 2 2 1 2 3 2 3 3 3 3 3 4 5 6 6 7 8
5 6 5 5 5 4 5 5 5 5 4 4 3 3 2 2 4 3 2 2 2 2 2 2 2 2 2 2 2 2 3 2 3 3 3 3 4 4 5 5 6 7 7
5 6 5 5 5 4 5 5 5 6 4 3 3 3 3 3 3 2 2 3 2 2 2 2 3 2 2 2 1 4 3 3 3 3 4 4 4 5 5 5 6 6 7
4 5 5 5 4 4 5 5 5 5 5 5 4 3 3 3 2 3 3 2 2 2 2 3 3 2 2 2 2 3 3 3 3 3 4 4 4 5 5 6 6 6 7
3 4 4 5 5 5 5 5 5 5 4 4 5 3 4 4 3 3 3 3 3 3 3 3 2 2 2 2 2 3 3 4 3 3 4 4 5 5 5 5 5 6 6
3 5 5 4 5 5 5 5 4 4 4 5 5 5 5 3 4 3 3 3 4 4 3 3 2 2 2 1 2 3 2 4 4 4 4 4 4 4 5 5 5 5 6
3 4 4 5 5 5 5 5 4 4 4 4 3 4 4 4 3 3 4 4 4 5 4 2 2 2 1 2 2 3 3 5 6 6 5 5 4 4 4 4 4 5 5
4 4 4 4 4 5 4 4 5 5 5 5 5 5 5 4 4 4 4 4 4 4 4 3 2 1 3 3 2 3 4 4 4 8 6 5 5 5 5 5 5 5 5
5 5 4 4 4 5 4 4 5 6 6 6 5 5 5 4 5 5 4 5 4 4 5 4 3 3 4 4 3 4 4 3 3 6 7 7 6 6 6 6 6 6 6
4 4 4 4 4 5 5 5 5 6 6 6 5 5 5 5 5 4 5 5 4 4 4 4 5 3 3 4 4 5 4 3 5 5 8 9 8 8 7 7 7 7 7
4 4 4 5 5 5 5 5 5 5 5 6 6 6 6 6 5 5 5 6 5 5 4 5 4 4 4 4 4 4 4 4 4 4 3 4 7 9 9 9 9 8 8
4 4 4 4 5 5 4 4 5 6 6 6 6 6 6 5 3 4 4 4 4 5 5 5 5 4 4 3 4 4 4 4 4 4 4 4 5 6 7 10 11 10 8
4 4 5 5 5 4 2 2 4 6 6 6 6 6 6 7 6 6 5 5 5 6 6 5 5 5 5 5 4 4 5 5 5 3 5 5 4 5 5 5 7 9 10
4 4 5 5 5 4 4 5 5 6 7 6 6 5 6 5 6 6 6 7 7 7 7 7 7 7 6 5 5 6 5 6 5 3 4 6 5 5 5 3 8 9 9
4 4 5 5 5 4 6 6 5 7 7 7 7 7 7 6 6 6 6 7 7 7 8 8 7 7 6 5 5 6 6 6 7 6 5 6 5 5 5 3 8 9 9
3 4 4 4 4 3 5 5 5 6 6 8 8 7 8 7 4 5 7 7 7 6 6 7 6 5 4 4 5 5 6 7 7 5 5 6 6 5 5 5 6 11 10
3 3 3 4 4 3 4 5 6 6 5 6 6 7 7 6 5 6 8 8 8 7 6 6 6 8 8 8 9 9 8 8 7 5 3 5 6 5 5 4 4 5 7
Wind_Direction
180 170 165 171 173 162 167 161 153 148 153 153 152 136 123 107 106 115 120 124 131 137 141 136 129 132 142 151 154 157 161 163 164 166 168 169 170 171 169 167 172 175 174
176 175 172 170 169 165 158 162 153 159 157 148 146 136 147 136 124 161 139 136 142 148 152 155 152 151 145 151 161 168 174 172 168 171 173 171 167 167 168 169 172 172 173
181 187 174 177 168 160 160 166 157 167 166 165 154 154 158 153 136 144 161 151 150 156 158 157 154 153 152 153 164 175 182 185 181 179 178 176 175 173 174 177 181 179 174
190 192 184 178 168 172 170 167 178 173 165 171 161 170 153 155 163 172 179 176 160 147 153 151 154 157 156 156 158 155 166 181 186 186 180 182 181 180 180 178 179 175 178
197 197 188 172 177 175 176 184 158 178 167 177 176 172 174 159 167 165 143 168 139 175 155 147 162 164 166 170 172 169 172 172 175 185 188 184 181 183 186 188 188 181 181
198 201 187 179 184 174 174 171 159 167 173 196 211 164 180 166 180 155 185 162 172 196 196 169 179 171 174 175 180 185 195 198 191 182 187 188 188 188 187 185 187 185 182
194 195 192 178 192 178 176 175 176 166 179 180 197 185 174 174 173 189 192 192 178 183 189 198 213 200 172 177 188 198 203 212 203 198 201 194 188 192 192 195 196 194 192
197 191 192 192 189 180 175 177 180 185 176 182 207 212 194 177 187 180 188 192 194 186 188 190 176 205 247 200 138 177 202 222 214 207 203 198 197 196 201 206 205 202 200
188 190 185 195 191 194 179 184 185 195 189 190 216 247 238 205 165 170 189 185 198 217 210 185 197 206 225 233 190 164 182 205 206 204 203 201 204 206 206 210 209 208 208
183 177 180 185 191 191 179 192 184 194 199 197 187 240 296 346 258 173 192 184 197 217 228 251 223 207 220 219 149 106 145 183 203 208 211 208 213 217 220 222 216 212 214
182 178 179 181 187 193 188 196 177 198 199 210 200 198 214 220 251 249 210 200 212 218 218 235 250 240 228 226 215 132 140 187 212 214 219 218 225 230 232 232 229 224 222
179 183 186 184 193 197 190 196 196 196 204 210 227 217 218 225 234 242 236 226 223 212 220 233 238 231 233 227 182 107 155 201 216 219 219 222 230 236 239 240 240 235 230
179 181 189 191 194 197 198 197 200 206 202 205 223 232 237 243 254 258 252 244 248 228 213 223 221 232 234 235 154 138 175 191 207 217 221 223 232 239 242 245 245 241 236
182 174 189 194 198 198 201 198 204 202 202 213 222 234 248 241 248 249 255 256 249 238 222 229 217 222 236 241 112 206 190 174 195 214 227 230 236 243 246 247 243 243 239
188 181 190 196 200 198 199 202 206 201 200 215 213 210 235 230 235 243 251 251 257 258 241 209 225 210 232 237 149 228 227 164 188 214 227 230 235 241 243 243 243 241 238
185 183 191 197 200 200 201 202 198 193 200 207 219 217 234 234 234 237 243 247 252 266 272 253 230 224 218 244 181 244 245 172 198 209 215 220 227 234 236 236 238 241 240
187 192 193 198 203 203 196 196 209 196 206 208 217 215 222 236 238 239 238 241 242 251 262 264 253 201 205 247 218 244 242 236 208 191 202 217 226 231 234 232 233 236 239
192 190 192 199 203 201 196 203 213 205 209 213 217 221 225 223 224 244 244 246 245 249 255 261 259 230 211 224 228 252 254 247 251 176 193 212 221 225 230 230 231 232 234
197 194 196 203 207 206 204 209 218 213 214 218 220 225 228 230 230 235 241 244 239 234 245 248 248 244 232 219 223 238 250 260 258 198 192 204 213 220 226 227 227 228 230
203 203 205 210 210 211 211 214 221 225 221 224 226 230 232 231 232 234 239 242 245 245 238 245 243 236 234 218 234 239 238 230 251 252 226 219 208 213 221 222 221 221 223
209 210 214 214 214 217 217 224 229 229 229 230 228 229 229 228 242 247 258 250 243 245 243 243 244 245 240 229 237 245 252 253 246 250 250 239 221 223 214 216 216 214 219
219 220 219 216 218 224 162 204 249 235 232 233 232 231 225 211 211 219 244 257 265 253 255 256 252 252 249 246 247 256 258 258 258 235 257 258 249 247 240 232 187 194 211
226 229 227 225 226 214 164 195 231 243 234 234 235 233 237 219 213 223 216 222 233 242 248 258 264 264 258 254 255 253 257 266 274 269 265 266 254 255 249 211 167 192 208
232 235 237 235 233 211 178 203 228 238 242 236 232 229 233 231 225 234 234 232 234 229 228 234 250 259 262 269 258 259 267 258 255 246 245 264 264 263 258 228 175 194 209
235 235 234 233 235 214 186 201 227 239 240 239 234 229 229 228 206 220 238 240 242 241 226 227 249 257 274 267 265 258 249 249 253 241 223 255 266 265 256 237 191 192 206
231 238 234 232 234 234 189 200 224 243 242 242 233 228 219 231 206 204 236 242 244 246 249 229 225 228 232 227 221 239 251 255 261 257 223 248 266 269 263 243 234 207 212